Mountain View, CA

4:13 AM PST on December 11, 2016 (GMT -0800)
Moffett Federal Air Field

Weather History for KNUQ - July, 2007

Change the Weather History Date:

Monday, July 2, 2007

  Actual Average Record
Temperature  
Mean Temperature 69 °F 68 °F  
Max Temperature 82 °F 78 °F 94 °F (1991)
Min Temperature 57 °F 58 °F 48 °F (1975)
Degree Days  
Heating Degree Days 0    
Month to date heating degree days  
Since 1 June heating degree days  
Since 1 July heating degree days  
Cooling Degree Days 4    
Month to date cooling degree days  
Year to date cooling degree days  
Since 1 June cooling degree days  
Growing Degree Days 19 (Base 50)    
Moisture  
Dew Point 51 °F    
Average Humidity 55    
Maximum Humidity 80    
Minimum Humidity 35    
Precipitation  
Precipitation 0.00 in 0.00 in 0.41 in (1980)
Month to date precipitation 0.00  
Year to date precipitation 9.63  
Sea Level Pressure  
Sea Level Pressure 30.10 in    
Wind  
Wind Speed 6 mph (NNW)    
Max Wind Speed 21 mph    
Max Gust Speed 23 mph    
Visibility 10 miles    
Events      
T = Trace of Precipitation, MM = Missing Value Source: NWS Daily Summary

Daily Weather History Graph

Daily Weather History Graph

Search for Another Location

Airport or City:

Trip Planner

Search our weather history database for the weather conditions in past years. The results will help you decide how hot, cold, wet, or windy it might be!

Date:

Astronomy

Jul. 02, 2007 Rise Set
Actual Time 5:51 AM PDT 8:32 PM PDT
Civil Twilight 5:20 AM PDT 9:03 PM PDT
Nautical Twilight 4:41 AM PDT 9:42 PM PDT
Astronomical Twilight 3:58 AM PDT 10:25 PM PDT
Moon 10:32 PM PDT (7/2) 7:48 AM PDT (7/2)
Length of Visible Light 15h 43m
Length of Day
14h 41m
Waning Gibbous, 95% of the Moon is Illuminated
Jul 2
Waning Gibbous
Jul 7
Last Quarter
Jul 14
New
Jul 21
First Quarter
Jul 29
Full

Hourly Weather History & Observations

Time (PDT) Temp. Heat Index Dew Point Humidity Pressure Visibility Wind Dir Wind Speed Gust Speed Precip Events Conditions
12:56 AM 61.0 °F - 46.9 °F 60% 30.10 in 10.0 mi NNW 4.6 mph - N/A   Clear
1:56 AM 60.1 °F - 46.0 °F 60% 30.09 in 10.0 mi Calm Calm - N/A   Clear
2:56 AM 57.9 °F - 48.9 °F 72% 30.09 in 10.0 mi SE 4.6 mph - N/A   Clear
3:56 AM 57.9 °F - 48.9 °F 72% 30.09 in 10.0 mi Calm Calm - N/A   Clear
4:56 AM 57.9 °F - 48.0 °F 70% 30.09 in 10.0 mi Calm Calm - N/A   Clear
5:56 AM 57.9 °F - 46.0 °F 65% 30.10 in 10.0 mi Calm Calm - N/A   Clear
6:56 AM 60.1 °F - 46.9 °F 62% 30.10 in 10.0 mi Calm Calm - N/A   Clear
7:56 AM 64.0 °F - 48.9 °F 58% 30.11 in 10.0 mi Calm Calm - N/A   Clear
8:56 AM 66.9 °F - 48.9 °F 52% 30.11 in 10.0 mi Calm Calm - N/A   Clear
9:56 AM 71.1 °F - 48.9 °F 45% 30.12 in 10.0 mi North 5.8 mph - N/A   Clear
10:56 AM 73.0 °F - 51.1 °F 46% 30.11 in 10.0 mi North 5.8 mph - N/A   Clear
11:56 AM 75.0 °F - 53.1 °F 46% 30.11 in 10.0 mi North 11.5 mph - N/A   Clear
12:56 PM 75.9 °F - 53.1 °F 45% 30.11 in 10.0 mi NNW 13.8 mph - N/A   Clear
1:56 PM 77.0 °F - 52.0 °F 42% 30.10 in 10.0 mi NNW 13.8 mph - N/A   Clear
2:56 PM 77.0 °F - 53.1 °F 43% 30.09 in 10.0 mi North 19.6 mph - N/A   Clear
3:56 PM 79.0 °F - 55.0 °F 44% 30.08 in 10.0 mi North 20.7 mph - N/A   Clear
4:56 PM 81.0 °F 80.5 °F 54.0 °F 39% 30.07 in 10.0 mi NNW 17.3 mph - N/A   Clear
5:56 PM 80.1 °F - 50.0 °F 35% 30.07 in 10.0 mi NNW 16.1 mph 23.0 mph N/A   Clear
6:56 PM 78.1 °F - 54.0 °F 43% 30.07 in 10.0 mi NW 11.5 mph 21.9 mph N/A   Clear
7:56 PM 75.0 °F - 54.0 °F 48% 30.09 in 10.0 mi NW 8.1 mph - N/A   Clear
8:56 PM 71.1 °F - 55.0 °F 57% 30.10 in 10.0 mi NNW 11.5 mph - N/A   Clear
9:56 PM 68.0 °F - 54.0 °F 61% 30.12 in 10.0 mi NNW 8.1 mph - N/A   Clear
10:56 PM 64.0 °F - 57.0 °F 78% 30.12 in 10.0 mi NNW 8.1 mph - N/A   Clear
11:56 PM 62.1 °F - 55.9 °F 80% 30.12 in 10.0 mi NNW 9.2 mph - N/A   Clear